Regional Weather Roundup
Issued by NWS

Home | Current Version | Previous Version | Graphics & Text | Print | Product List | Glossary On
Versions: 1 2 3 4 5 6 7 8 9 10 11 12 13 14 15 16 17 18 19 20 21 22 23 24 25 26 27 28 29 30 31 32 33 34 35 36 37 38 39 40 41 42 43 44 45 46 47 48 49 50
000
ASUS45 KABQ 021001
RWRNM
NEW MEXICO REGIONAL WEATHER ROUNDUP
NATIONAL WEATHER SERVICE ALBUQUERQUE NM
400 AM MDT MON MAY 02 2016

NOTE: "FAIR" MEANS FEW OR NO CLOUDS BELOW 12,000 FEET AGL WITH NO
       SIGNIFICANT WEATHER OR OBSTRUCTIONS TO VISION.

      THIS PRODUCT IS RELEASED AS TWO VERSIONS.  ONE VERSION NEAR
      THE TOP OF THE HOUR CONTAINING PRELIMINARY DATA FROM ALBUQUERQUE
      AND OTHER STATIONS.  A FINAL VERSION WITH ADDITIONAL DATA IS
      ISSUED ABOUT 10 MINUTES AFTER THE HOUR.

NMZ501-503-504-510>518-021100-
NORTHWEST PLATEAU/NORTHCENTRAL MOUNTAINS

CITY           SKY/WX    TMP DP  RH WIND       PRES   REMARKS
FARMINGTON     FAIR      37  32  82 E6        30.21S WCI  32
SANTA FE       CLOUDY    35  29  78 S10       30.26R WCI  27
TAOS           CLOUDY    34  27  75 NW6       30.26S WCI  29
ANGEL FIRE     CLOUDY    27  24  88 NE3       30.25F

$$
NMZ402-403-502-505>509-021100-
WESTCENTRAL MOUNTAINS/SOUTHWEST MOUNTAINS

CITY           SKY/WX    TMP DP  RH WIND       PRES   REMARKS
GALLUP         MOCLDY    34  31  88 E3        30.20S
GRANTS         CLOUDY    35  34  96 S12       30.24S WCI  27
SILVER CITY      N/A     39  30  70 S8        30.19S WCI  34

$$
NMZ407-409-411-412-021100-
SOUTHERN DESERTS

CITY           SKY/WX    TMP DP  RH WIND       PRES   REMARKS
LORDSBURG      FAIR      45  32  61 SE21      30.15R
DEMING         FAIR      42  33  70 E9        30.20R
HOLLOMAN AFB   FAIR      44  32  62 SE13      30.19R
ALAMOGORDO     FAIR      41  32  70 S8        30.21S
T OR C         LGT RAIN  43  32  65 NE15G22   30.21R

$$
NMZ519>523-021100-
CENTRAL VALLEYS/CENTRAL HIGHLANDS

CITY           SKY/WX    TMP DP  RH WIND       PRES   REMARKS
ALBUQUERQUE    FAIR      38  30  73 E10       30.26R WCI  31
DOUBLE EAGLE   CLOUDY    35  31  85 SE7       30.27R WCI  29
MORIARTY ARPT  CLOUDY    35  29  79 SE9       30.29S WCI  28
CLINES CORNERS CLOUDY    30  27  88 SE8       30.24F WCI  22
BELEN          CLOUDY    40  38  93 NW3       30.25S
SOCORRO        NOT AVBL

$$
NMZ524>526-539-540-021100-
SOUTHCENTRAL MOUNTAINS

CITY           SKY/WX    TMP DP  RH WIND       PRES   REMARKS
RUIDOSO        NOT AVBL

$$
NMZ527>531-021100-
NORTHEAST HIGHLANDS/NORTHEAST PLAINS

CITY           SKY/WX    TMP DP  RH WIND       PRES   REMARKS
LAS VEGAS      FOG       29  29 100 CALM      30.27S VSB 3/4
RATON          FAIR      25  23  92 NE5       30.25S WCI  19
CLAYTON        FAIR      34  30  85 NW12      30.25S WCI  25

$$
NMZ532>537-021100-
EASTCENTRAL PLAINS

CITY           SKY/WX    TMP DP  RH WIND       PRES   REMARKS
TUCUMCARI      MOCLDY    34  32  92 W7        30.27S WCI  28
CANNON AFB     CLOUDY    39  37  94 N9        30.26S WCI  33
CLOVIS AIRPORT CLOUDY    39  34  81 N8        30.27S WCI  34

$$
NMZ028-029-538-021100-
SOUTHEAST PLAINS

CITY           SKY/WX    TMP DP  RH WIND       PRES   REMARKS
ROSWELL        CLOUDY    44  35  70 N6        30.27F
ARTESIA        FAIR      43  34  70 NE7       30.27S
CARLSBAD       CLOUDY    45  36  70 NW9       30.24F
HOBBS          FAIR      37  37 100 N5        30.25R WCI  34


$$




USA.gov is the U.S. government's official web portal to all federal, state and local government web resources and services.